This is the latest recevied weather packets stored in our database for station/object W7TRD. If no packets are shown the sender has not sent any weather packets the latest 10 day(s).
| Time | Temp. | Humidity | Pressure | Rain* | Wind** | Luminosity | Snow |
|---|---|---|---|---|---|---|---|
| 1787862452 | 22.78° C | 57% | 1019.3 hPa | 0 mm | - | 146 W/m² | - |
| 1787862147 | 22.78° C | 55% | 1019.5 hPa | 0 mm | - | 163 W/m² | - |
| 1787861842 | 22.78° C | 56% | 1019.5 hPa | 0 mm | - | 183 W/m² | - |
| 1787861542 | 22.78° C | 56% | 1019.4 hPa | 0 mm | - | 186 W/m² | - |
| 1787861235 | 23.33° C | 54% | 1019.4 hPa | 0 mm | - | 203 W/m² | - |
| 1787860934 | 25° C | 51% | 1019.3 hPa | 0 mm | - | 261 W/m² | - |
| 1787860629 | 23.89° C | 54% | 1019.3 hPa | 0 mm | - | 632 W/m² | - |
| 1787860324 | 23.89° C | 54% | 1019.4 hPa | 0 mm | - | 920 W/m² | - |
| 1787860020 | 22.78° C | 56% | 1019.5 hPa | 0 mm | - | 798 W/m² | - |
| 1787859715 | 22.78° C | 57% | 1019.4 hPa | 0 mm | - | 573 W/m² | - |
| 1787859415 | 23.89° C | 54% | 1019.6 hPa | 0 mm | - | 195 W/m² | - |
| 1787859109 | 23.33° C | 57% | 1019.5 hPa | 0 mm | - | 798 W/m² | - |
| 1787858806 | 22.78° C | 56% | 1019.7 hPa | 0 mm | - | 283 W/m² | - |
| 1787858502 | 22.78° C | 59% | 1019.6 hPa | 0 mm | - | 736 W/m² | - |
| 1787858201 | 22.78° C | 56% | 1019.7 hPa | 0 mm | - | 298 W/m² | - |
| 1787857897 | 22.78° C | 57% | 1019.7 hPa | 0 mm | - | 247 W/m² | - |
| 1787857593 | 24.44° C | 55% | 1019.6 hPa | 0 mm | - | 266 W/m² | - |
| 1787857293 | 24.44° C | 56% | 1019.6 hPa | 0 mm | - | 967 W/m² | - |
| 1787856992 | 22.78° C | 55% | 1019.6 hPa | 0 mm | - | 948 W/m² | - |
| 1787856691 | 23.89° C | 58% | 1019.6 hPa | 0 mm | - | 330 W/m² | - |
| 1787856391 | 22.78° C | 57% | 1019.7 hPa | 0 mm | - | 800 W/m² | - |
| 1787856087 | 22.78° C | 57% | 1019.8 hPa | 0 mm | - | 826 W/m² | - |
| 1787855782 | 22.22° C | 58% | 1019.9 hPa | 0 mm | - | 521 W/m² | - |
| 1787855477 | 21.11° C | 61% | 1019.9 hPa | 0 mm | - | 313 W/m² | - |
| 1787855172 | 21.67° C | 59% | 1019.7 hPa | 0 mm | - | 127 W/m² | - |
* Rain latest hour (hover to see other rain measurements)
** Current wind speed in m/s (hover to see current wind gust speed)